Overview Statistics Trail Chart Weather Telemetry Raw packets
 

This is the latest recevied weather packets stored in our database for station/object WI0K. If no packets are shown the sender has not sent any weather packets the latest 10 day(s).

<< 58 59 60 61 62 63 64 >>
Time Temp. Humidity Pressure Rain* Wind** Luminosity Snow
1788272328 17.22° C 76% 1020.9 hPa 0 mm - 75 W/m² -
1788272027 17.22° C 77% 1020.9 hPa 0 mm - 71 W/m² -
1788271726 17.22° C 76% 1020.9 hPa 0 mm - 70 W/m² -
1788271425 16.67° C 76% 1020.8 hPa 0 mm - 84 W/m² -
1788271124 16.67° C 76% 1020.9 hPa 0 mm - 80 W/m² -
1788270824 16.67° C 76% 1020.8 hPa 0 mm - 66 W/m² -
1788270523 16.67° C 76% 1020.9 hPa 0 mm - 62 W/m² -
1788270222 16.67° C 76% 1020.9 hPa 0 mm - 60 W/m² -
1788269922 16.67° C 79% 1020.8 hPa 0 mm - 47 W/m² -
1788269621 16.67° C 80% 1020.8 hPa 0 mm - 35 W/m² -
1788269320 16.11° C 81% 1020.8 hPa 0 mm - 32 W/m² -
1788269019 16.11° C 80% 1020.7 hPa 0 mm - 30 W/m² -
1788268719 16.11° C 80% 1020.7 hPa 0 mm - 30 W/m² -
1788268418 16.11° C 80% 1020.5 hPa 0 mm - 30 W/m² -
1788268117 16.11° C 79% 1020.4 hPa 0 mm - 24 W/m² -
1788267816 16.67° C 79% 1020.3 hPa 0 mm - 19 W/m² -
1788267515 16.67° C 79% 1020.2 hPa 0 mm - 12 W/m² -
1788267215 16.67° C 77% 1020.2 hPa 0 mm - 11 W/m² -
1788266914 16.67° C 77% 1020.1 hPa 0 mm - 9 W/m² -
1788266613 16.67° C 77% 1020.1 hPa 0 mm - 5 W/m² -
1788266313 16.67° C 77% 1020.1 hPa 0 mm - 3 W/m² -
1788266012 16.67° C 78% 1019.9 hPa 0 mm - 2 W/m² -
1788265711 16.67° C 78% 1020.1 hPa 0 mm - 1 W/m² -
1788265411 16.67° C 78% 1020.1 hPa 0 mm - 1 W/m² -
1788265110 17.22° C 76% 1019.8 hPa 0 mm - 0 W/m² -

* Rain latest hour (hover to see other rain measurements)
** Current wind speed in m/s (hover to see current wind gust speed)